COSMOS 2251 DEB

Satellite information

Favourite Embed

Satellite Type and Status

DEBRISIN ORBIT

Key statistics

Satellite COSMOS 2251 DEB at a glance.

Uptime

11868

Days in orbit

Revolutions

≈ 14.4

Per day

Orbit

LEO

Low Earth Orbit

Inclination

74.0

Latest

Satellite identification and parameters

Extended collection of information and parameters for COSMOS 2251 DEB.

Object identification

Identified? True

Debris? True

Object name: COSMOS 2251 DEB

International designator: 1993-036HK

Object number (NORAD): 34024

Object ID (CCSDS): 34024

Country: COMMONWEALTH OF INDEPENDENT STATES (CIS)

Current information (Y/N): Y

RCS size: SMALL

Orbital parameters

Period: 100.321 minutes

Inclination: 74.0465 deg

SMA: 7151.889 km

Apoapsis: 788.778 km

Periapsis: 758.729 km

RAAN: 316.8711 deg

Eccentricy: 0.0021008

Argument of periapsis: 7.6906 deg

Mean anomaly: 102.1111 deg

Mean motion: 14.35395664 rev/day

Mean motion (dot): 0.00000896 rev/day2

B* drag term: 0.0003204286 1/REarth

Two-line elements (TLE)

Creation date: Dec. 12, 2025, 10:14 a.m.

Reference frame: TEME

Reference center: EARTH

Epoch: Dec. 12, 2025, 6:15 a.m. UTC

TLE line 0: 0 COSMOS 2251 DEB

TLE line 1: 1 34024U 93036HK 25346.26080484 .00000896 00000-0 32043-3 0 9994

TLE line 2: 2 34024 74.0465 316.8711 0021008 7.6906 102.1111 14.35395664880174

Live tracking on map

Real-time ground track for satellite COSMOS 2251 DEB.

In-orbit conjunctions

A list of the most updated potential collisions computed for object COSMOS 2251 DEB.

Target Orbit TCA Probability of collision Miss distance Type
COSMOS 2251 DEB LEO 2025-10-25 23:11:50 0.0001173762 574.0 (m) DEBRIS
COSMOS 990 LEO 2025-05-21 11:44:12 0.0001581046 384.0 (m) PAYLOAD
DELTA 1 DEB SSO 2024-06-06 21:48:53 0.0001519147 220.0 (m) DEBRIS

Associated space launch

Military communications satellite. Destroyed in a collision with Iridium 33.

COSMOS 2251 DEB was lifted into orbit during the mission ‘Kosmos-3M | Strela-2M 51’, on board a Kosmos-3M space rocket.

The launch took place on June 16, 1993, 4:17 a.m. from 132/1 (132L).

For more information about the launch, click the button.

Launch to space Kosmos-3M | Strela-2M 51
Kosmos-3M | Strela-2M 51

Agency: N/A

Status: Launch Successful

Launch date: June 16, 1993, 4:17 a.m. UTC

Rocket: Kosmos-3M

Launch pad: 132/1 (132L)

Location: Plesetsk Cosmodrome, Russian Federation

...

Latest news about this satellite

There are no fresh news available about this satellite. Check back as we update our databases every day.


Newsletter sign-up

Weekly statistics, charts and insights to help you stay on top of the space industry.